Columbus, OH

10:57 AM EST on February 24, 2017 (GMT -0500)
Port Columbus International

Weather History for KCMH - June, 2013

Change the Weather History Date:

Thursday, June 6, 2013

  Actual Average Record
Temperature  
Mean Temperature 66 °F 69 °F  
Max Temperature 71 °F 79 °F 95 °F (1925)
Min Temperature 60 °F 59 °F 43 °F (1993)
Degree Days  
Heating Degree Days 0 1  
Month to date heating degree days 5 10  
Since 1 June heating degree days 5 10  
Since 1 July heating degree days 5159 5237  
Cooling Degree Days 1 5  
Month to date cooling degree days 25 29  
Year to date cooling degree days 186 111  
Since 1 June cooling degree days 25 29  
Growing Degree Days 16 (Base 50)    
Moisture  
Dew Point 63 °F    
Average Humidity 89    
Maximum Humidity 97    
Minimum Humidity 81    
Precipitation  
Precipitation 1.17 in 0.14 in 1.22 in (1923)
Month to date precipitation 1.54 0.86  
Year to date precipitation 14.01 16.43  
Snow  
Snow 0.00 in 0.00 in 0.00 in ()
Month to date snowfall 0.0 0.0  
Since 1 June snowfall 0.0 0.0  
Since 1 July snowfall 41.2 26.7  
Snow Depth 0.00 in    
Sea Level Pressure  
Sea Level Pressure 29.82 in    
Wind  
Wind Speed 7 mph (North)    
Max Wind Speed 16 mph    
Max Gust Speed 18 mph    
Visibility 6 miles    
Events Rain , Thunderstorm    
T = Trace of Precipitation, MM = Missing Value Source: NWS Daily Summary

Daily Weather History Graph

Daily Weather History Graph

Search for Another Location

Airport or City:

Trip Planner

Search our weather history database for the weather conditions in past years. The results will help you decide how hot, cold, wet, or windy it might be!

Date:

Astronomy

Jun. 06, 2013 Rise Set
Actual Time 6:03 AM EDT 8:57 PM EDT
Civil Twilight 5:30 AM EDT 9:30 PM EDT
Nautical Twilight 4:49 AM EDT 10:11 PM EDT
Astronomical Twilight 4:02 AM EDT 10:58 PM EDT
Moon 4:43 AM EDT (6/6) 7:18 PM EDT (6/6)
Length of Visible Light 15h 59m
Length of Day
14h 54m
Waning Crescent, 4% of the Moon is Illuminated
Jun 6
Waning Crescent
Jun 8
New
Jun 16
First Quarter
Jun 23
Full
Jun 30
Last Quarter

Hourly Weather History & Observations

Time (EDT) Temp. Dew Point Humidity Pressure Visibility Wind Dir Wind Speed Gust Speed Precip Events Conditions
12:49 AM 69.8 °F 57.2 °F 64% 29.89 in 3.0 mi Calm Calm - 0.01 in Rain , Thunderstorm Light Thunderstorms and Rain
12:51 AM 69.1 °F 59.0 °F 70% 29.88 in 5.0 mi South 6.9 mph - 0.04 in Rain , Thunderstorm Light Thunderstorms and Rain
12:53 AM 68.0 °F 59.0 °F 73% 29.90 in 1.5 mi South 5.8 mph - 0.02 in Rain , Thunderstorm Light Thunderstorms and Rain
1:14 AM 64.4 °F 62.6 °F 94% 29.90 in 2.0 mi Calm Calm - 0.82 in Rain Heavy Rain
1:31 AM 64.4 °F 60.8 °F 88% 29.89 in 5.0 mi ENE 9.2 mph - 1.06 in Rain Rain
1:37 AM 64.4 °F 60.8 °F 88% 29.89 in 7.0 mi ENE 6.9 mph - 1.07 in Rain , Thunderstorm Light Thunderstorms and Rain
1:51 AM 64.0 °F 62.1 °F 93% 29.87 in 7.0 mi NE 3.5 mph - 1.07 in Rain , Thunderstorm Thunderstorms and Rain
2:06 AM 64.4 °F 62.6 °F 94% 29.88 in 7.0 mi ENE 4.6 mph - 0.03 in Rain Light Rain
2:51 AM 64.0 °F 62.1 °F 93% 29.85 in 9.0 mi East 4.6 mph - 0.03 in   Overcast
3:26 AM 64.4 °F 62.6 °F 94% 29.85 in 8.0 mi East 5.8 mph - N/A   Overcast
3:51 AM 66.0 °F 64.9 °F 96% 29.83 in 8.0 mi ESE 6.9 mph - 0.00 in   Overcast
4:51 AM 66.9 °F 66.0 °F 97% 29.82 in 5.0 mi SE 5.8 mph - 0.03 in Rain Light Rain
5:19 AM 66.2 °F 66.2 °F 100% 29.83 in 6.0 mi SSE 5.8 mph - 0.03 in   Overcast
5:51 AM 68.0 °F 66.9 °F 96% 29.82 in 5.0 mi South 6.9 mph - 0.03 in Rain Light Rain
6:10 AM 68.0 °F 66.2 °F 94% 29.84 in 5.0 mi South 9.2 mph - 0.02 in Rain Light Rain
6:51 AM 68.0 °F 66.0 °F 93% 29.82 in 5.0 mi South 6.9 mph - 0.03 in Rain Light Rain
7:51 AM 68.0 °F 66.9 °F 96% 29.81 in 7.0 mi SSW 4.6 mph - 0.00 in   Overcast
8:51 AM 68.0 °F 66.9 °F 96% 29.81 in 6.0 mi SSW 5.8 mph - 0.00 in   Overcast
9:51 AM 70.0 °F 66.9 °F 90% 29.79 in 5.0 mi South 4.6 mph - N/A   Overcast
10:51 AM 68.0 °F 66.0 °F 93% 29.80 in 3.0 mi North 8.1 mph - N/A   Overcast
11:51 AM 66.9 °F 64.9 °F 93% 29.80 in 3.0 mi NNW 9.2 mph - 0.00 in   Overcast
11:58 AM 66.2 °F 64.4 °F 94% 29.82 in 3.0 mi NNW 8.1 mph - 0.00 in Rain Light Rain
12:09 PM 66.2 °F 64.4 °F 94% 29.82 in 3.0 mi North 8.1 mph - 0.00 in Rain Light Rain
12:51 PM 64.9 °F 64.9 °F 100% 29.81 in 3.0 mi North 6.9 mph - 0.06 in Rain Rain
1:29 PM 66.2 °F 64.4 °F 94% 29.82 in 3.0 mi North 8.1 mph - 0.10 in Rain Rain
1:34 PM 66.2 °F 64.4 °F 94% 29.81 in 4.0 mi North 8.1 mph - 0.11 in Rain Light Rain
1:51 PM 66.0 °F 64.9 °F 96% 29.80 in 4.0 mi North 9.2 mph - 0.12 in Rain Light Rain
2:33 PM 66.2 °F 64.4 °F 94% 29.80 in 8.0 mi North 3.5 mph - 0.02 in Rain Light Rain
2:51 PM 66.9 °F 64.9 °F 93% 29.80 in 8.0 mi NNE 4.6 mph - 0.03 in Rain Light Rain
3:51 PM 68.0 °F 64.9 °F 90% 29.78 in 8.0 mi North 6.9 mph - 0.00 in   Overcast
4:40 PM 69.8 °F 64.4 °F 83% 29.79 in 8.0 mi North 5.8 mph - N/A   Overcast
4:51 PM 70.0 °F 64.9 °F 84% 29.78 in 8.0 mi NNW 4.6 mph - N/A   Overcast
5:41 PM 71.6 °F 64.4 °F 78% 29.78 in 10.0 mi North 6.9 mph - N/A   Overcast
5:51 PM 70.0 °F 64.9 °F 84% 29.78 in 10.0 mi NW 6.9 mph - N/A   Overcast
6:23 PM 69.8 °F 64.4 °F 83% 29.80 in 8.0 mi NNW 12.7 mph - N/A   Overcast
6:41 PM 69.8 °F 64.4 °F 83% 29.80 in 7.0 mi North 10.4 mph - N/A   Overcast
6:51 PM 68.0 °F 63.0 °F 84% 29.79 in 8.0 mi NNW 15.0 mph - N/A   Overcast
7:02 PM 66.2 °F 62.6 °F 88% 29.80 in 7.0 mi NNW 13.8 mph - N/A   Overcast
7:51 PM 66.0 °F 61.0 °F 84% 29.80 in 6.0 mi North 12.7 mph - N/A   Haze
8:51 PM 64.9 °F 60.1 °F 84% 29.81 in 6.0 mi North 11.5 mph - N/A   Haze
9:51 PM 63.0 °F 60.1 °F 90% 29.82 in 6.0 mi North 8.1 mph - N/A   Overcast
10:02 PM 62.6 °F 60.8 °F 94% 29.84 in 6.0 mi North 6.9 mph - N/A   Overcast
10:51 PM 62.1 °F 59.0 °F 90% 29.83 in 5.0 mi NNE 8.1 mph - N/A   Overcast
11:51 PM 61.0 °F 59.0 °F 93% 29.84 in 4.0 mi NNW 8.1 mph - N/A   Overcast